Weather History for Toledo, OH

Change the Weather History Date:

Tuesday, November 12, 2013

  Actual Average Record
Temperature  
Mean Temperature 29 °F 43 °F  
Max Temperature 35 °F 52 °F 72 °F (1964)
Min Temperature 22 °F 35 °F 15 °F (1976)
Degree Days  
Heating Degree Days 36 22  
Month to date heating degree days 264 239  
Since 1 July heating degree days 801 765  
Cooling Degree Days 0 0  
Month to date cooling degree days 0 0  
Year to date cooling degree days 793 793  
Moisture  
Dew Point 19 °F    
Average Humidity 66    
Maximum Humidity 81    
Minimum Humidity 51    
Precipitation  
Precipitation 0.00 in 0.10 in 1.22 in (1992)
Month to date precipitation 0.46 1.08  
Year to date precipitation 32.87 29.78  
Snow  
Snow 0.00 in 0.00 in - ()
Month to date snowfall 0.5 0.4  
Since 1 July snowfall 0.5 0.6  
Since 1 September snowfall 0.5 0.6  
Snow Depth 1.00 in    
Sea Level Pressure  
Sea Level Pressure 30.51 in    
Wind  
Wind Speed 10 mph (NW)    
Max Wind Speed 18 mph    
Max Gust Speed 25 mph    
Visibility 10 miles    
Events      
T = Trace of Precipitation, MM = Missing Value Source: NWS Daily Summary

Daily Weather History Graph

Daily Weather History Graph

Search for Another Location

Airport:

Trip Planner

Search our weather history database for the weather conditions in past years. The results will help you decide how hot, cold, wet, or windy it might be!

Date:

Astronomy

Nov. 12, 2013 Rise Set
Actual Time 7:20 AM EST 5:17 PM EST
Civil Twilight 6:51 AM EST 5:47 PM EST
Nautical Twilight 6:17 AM EST 6:20 PM EST
Astronomical Twilight 5:45 AM EST 6:53 PM EST
Moon 2:34 PM EST (11/12) 2:05 AM EST (11/12)
Length of Visible Light 10h 56m
Length of Day
9h 56m
Waxing Gibbous, 76% of the Moon is Illuminated
Nov 12
Waxing Gibbous
Nov 17
Full
Nov 25
Last Quarter
Dec 2
New
Dec 9
First Quarter

Hourly Weather History & Observations

Time (EST) Temp. Windchill Dew Point Humidity Pressure Visibility Wind Dir Wind Speed Gust Speed Precip Events Conditions
12:52 AM 28.0 °F 18.6 °F 21.0 °F 75% 30.35 in 10.0 mi NNW 10.4 mph - N/A   Partly Cloudy
1:52 AM 27.0 °F 17.3 °F 19.9 °F 75% 30.37 in 10.0 mi NNW 10.4 mph - N/A   Clear
2:52 AM 26.1 °F 16.2 °F 19.0 °F 75% 30.39 in 10.0 mi NNW 10.4 mph - N/A   Clear
3:52 AM 25.0 °F 14.2 °F 18.0 °F 75% 30.41 in - NNW 11.5 mph - N/A   Clear
4:52 AM 24.1 °F 15.2 °F 18.0 °F 77% 30.44 in 10.0 mi NNW 8.1 mph - N/A   Clear
5:52 AM 23.0 °F 13.1 °F 18.0 °F 81% 30.45 in 10.0 mi NW 9.2 mph - N/A   Clear
6:52 AM 23.0 °F 13.9 °F 17.1 °F 78% 30.49 in 10.0 mi NNW 8.1 mph - N/A   Clear
7:52 AM 23.0 °F 13.1 °F 18.0 °F 81% 30.52 in 10.0 mi WNW 9.2 mph - N/A   Clear
8:52 AM 25.0 °F 15.5 °F 19.9 °F 81% 30.54 in 10.0 mi NNW 9.2 mph - N/A   Clear
9:52 AM 27.0 °F 16.1 °F 19.9 °F 75% 30.55 in 10.0 mi NNW 12.7 mph 20.7 mph N/A   Clear
10:52 AM 30.0 °F 22.4 °F 21.0 °F 69% 30.57 in 10.0 mi NNW 8.1 mph 18.4 mph N/A   Clear
11:52 AM 30.9 °F 19.8 °F 21.0 °F 67% 30.57 in 10.0 mi NNW 16.1 mph 23.0 mph N/A   Clear
12:52 PM 33.1 °F 22.6 °F 21.0 °F 61% 30.56 in 10.0 mi NW 16.1 mph - N/A   Mostly Cloudy
1:52 PM 34.0 °F 24.6 °F 19.9 °F 56% 30.55 in 10.0 mi NNW 13.8 mph - N/A   Partly Cloudy
2:52 PM 34.0 °F 24.6 °F 19.0 °F 54% 30.55 in 10.0 mi WNW 13.8 mph - N/A   Overcast
3:52 PM 33.1 °F 25.5 °F 18.0 °F 54% 30.55 in 10.0 mi WNW 9.2 mph - N/A   Mostly Cloudy
4:52 PM 32.0 °F 24.2 °F 17.1 °F 54% 30.55 in 10.0 mi NW 9.2 mph - N/A   Partly Cloudy
5:52 PM 30.0 °F 25.2 °F 18.0 °F 61% 30.54 in 10.0 mi West 4.6 mph - N/A   Partly Cloudy
6:52 PM 28.9 °F 20.4 °F 18.0 °F 64% 30.56 in 10.0 mi West 9.2 mph - N/A   Clear
7:52 PM 28.9 °F 21.1 °F 19.0 °F 67% 30.58 in 10.0 mi WNW 8.1 mph - N/A   Clear
8:52 PM 28.0 °F 20.0 °F 17.1 °F 63% 30.58 in 10.0 mi WNW 8.1 mph - N/A   Clear
9:52 PM 25.0 °F 19.3 °F 18.0 °F 75% 30.58 in 10.0 mi West 4.6 mph - N/A   Partly Cloudy
10:52 PM 25.0 °F 18.1 °F 17.1 °F 72% 30.58 in 10.0 mi West 5.8 mph - N/A   Clear
11:52 PM 24.1 °F 17.0 °F 17.1 °F 75% 30.58 in 10.0 mi West 5.8 mph - N/A   Clear